1518955200.23,58684,11.06,73092.5,-3.79,-39.79,-39.65,0,*57
1518955201.46,58685,11.06,73092.0,-3.77,-40.03,-39.85,0,*55
1518955202.73,58686,11.13,73092.3,-3.77,-40.29,-40.29,0,*56
1518955204.02,58687,11.06,73094.0,-3.77,-39.59,-39.41,0,*5E
1518955205.28,58688,11.13,73098.5,-3.77,-39.85,-39.79,0,*5B
1518955206.52,58689,11.13,73094.8,-3.75,-41.17,-41.35,0,*5B
1518955207.76,58690,11.06,73092.0,-3.75,-42.13,-42.31,0,*53
1518955208.99,58691,11.13,73090.8,-3.75,-41.55,-41.73,0,*56
1518955210.27,58692,11.06,73088.5,-3.77,-40.59,-40.79,0,*51
1518955211.53,58693,11.13,73092.0,-3.77,-41.23,-41.41,0,*56
1518955212.8,58694,11.06,73092.8,-3.77,-41.03,-40.97,0,*59
1518955214.06,58695,11.13,73096.3,-3.77,-40.47,-40.41,0,*52
1518955215.32,58696,11.13,73098.8,-3.77,-39.91,-39.79,0,*51
1518955216.54,58697,11.06,73094.8,-3.75,-40.15,-40.15,0,*54
1518955217.76,58698,11.13,73096.5,-3.75,-40.91,-40.91,0,*5B
1518955218.99,58699,11.06,73096.3,-3.75,-40.91,-40.79,0,*5C
1518955220.23,58700,11.13,73102.3,-3.75,-41.41,-41.55,0,*5E
1518955221.47,58701,11.06,73098.0,-3.75,-42.13,-42.19,0,*50
1518955222.7,58702,11.06,73094.5,-3.75,-40.79,-40.73,0,*53
1518955223.93,58703,11.13,73096.3,-3.77,-41.29,-41.29,0,*5A
1518955225.16,58704,11.06,73092.0,-3.77,-42.25,-42.25,0,*5D
1518955226.4,58705,11.06,73094.8,-3.79,-41.23,-41.29,0,*58
1518955227.6,58706,11.13,73094.3,-3.79,-41.29,-41.29,0,*51
1518955228.86,58707,11.06,73094.8,-3.77,-39.85,-39.79,0,*5D
1518955230.16,58708,11.13,73096.8,-3.77,-39.59,-39.59,0,*51
1518955231.38,58709,11.06,73094.3,-3.75,-40.21,-40.35,0,*57
1518955232.61,58710,11.13,73096.5,-3.75,-40.59,-40.53,0,*50
1518955233.89,58711,11.13,73098.5,-3.73,-40.15,-40.21,0,*5A
1518955235.15,58712,11.13,73096.8,-3.75,-40.97,-40.97,0,*58
1518955236.43,58713,11.13,73094.3,-3.73,-40.79,-40.79,0,*5F
1518955237.64,58714,11.13,73092.0,-3.75,-41.17,-41.11,0,*58
1518955238.88,58715,11.13,73094.0,-3.75,-40.97,-41.11,0,*50
1518955240.16,58716,11.06,73090.3,-3.73,-39.97,-39.79,0,*5A
1518955241.45,58717,11.13,73092.8,-3.73,-39.71,-39.53,0,*5B
1518955242.69,58718,11.13,73092.8,-3.73,-41.11,-41.11,0,*54
1518955243.95,58719,11.06,73090.8,-3.75,-40.41,-40.41,0,*53
1518955245.22,58720,11.06,73090.8,-3.73,-40.79,-40.91,0,*59
1518955246.5,58721,11.13,73092.0,-3.71,-41.93,-41.93,0,*5C
1518955247.77,58722,11.13,73094.0,-3.71,-42.05,-42.05,0,*5F
1518955249.01,58723,11.13,73094.5,-3.73,-40.35,-40.35,0,*5C
1518955250.28,58724,11.13,73090.3,-3.73,-40.91,-40.97,0,*5D
1518955251.52,58725,11.13,73092.8,-3.75,-41.23,-41.17,0,*5B
1518955252.81,58726,11.13,73090.3,-3.73,-41.35,-41.35,0,*59
1518955254.05,58727,11.13,73090.5,-3.73,-40.35,-40.35,0,*58
1518955255.3,58728,11.13,73094.5,-3.73,-40.21,-40.03,0,*57
1518955256.51,58729,11.13,73092.8,-3.69,-40.47,-40.47,0,*5D
1518955257.8,58730,11.13,73092.3,-3.71,-40.09,-40.09,0,*5C
1518955259.0,58731,11.13,73092.3,-3.69,-40.65,-40.65,0,*54
1518955260.22,58732,11.13,73092.0,-3.69,-41.03,-41.03,0,*57
1518955261.46,58733,11.13,73094.3,-3.69,-40.29,-40.15,0,*59
1518955262.71,58734,11.13,73090.8,-3.69,-41.93,-41.93,0,*51
1518955263.93,58735,11.06,73090.0,-3.69,-40.91,-40.73,0,*5C
1518955265.13,58736,11.13,73090.8,-3.69,-40.35,-40.35,0,*53
1518955266.36,58737,11.13,73094.0,-3.69,-40.15,-40.15,0,*52
1518955267.6,58738,11.13,73096.3,-3.69,-40.15,-39.97,0,*59
1518955268.86,58739,11.13,73098.5,-3.69,-39.97,-39.71,0,*54
1518955270.12,58740,11.06,73094.3,-3.65,-40.21,-40.09,0,*54
1518955271.37,58741,11.13,73096.0,-3.65,-40.97,-40.79,0,*5F
1518955272.58,58742,11.06,73100.3,-3.65,-39.85,-39.47,0,*52
1518955273.87,58743,11.13,73096.3,-3.67,-40.59,-40.59,0,*5F
1518955275.13,58744,11.13,73098.5,-3.65,-40.79,-40.59,0,*58
1518955276.36,58745,11.13,73092.8,-3.65,-40.65,-40.79,0,*56
1518955277.63,58746,11.13,73090.8,-3.65,-40.97,-40.97,0,*58
1518955278.84,58747,11.13,73092.5,-3.65,-40.47,-40.47,0,*59
1518955280.07,58748,11.13,73100.5,-3.61,-40.03,-39.97,0,*51
1518955281.33,58749,11.13,73098.0,-3.59,-39.59,-39.35,0,*52
1518955282.57,58750,11.06,73092.5,-3.59,-41.87,-41.87,0,*50
1518955283.81,58751,11.13,73096.8,-3.61,-41.99,-41.81,0,*53
1518955285.02,58752,11.13,73096.0,-3.61,-40.91,-40.73,0,*55
1518955286.23,58753,11.13,73096.3,-3.61,-40.35,-40.35,0,*58
1518955287.47,58754,11.13,73100.8,-3.61,-40.97,-40.91,0,*59
1518955288.71,58755,11.13,73104.5,-3.61,-41.17,-41.23,0,*59
1518955289.95,58756,11.13,73104.5,-3.59,-40.91,-40.91,0,*56
1518955291.16,58757,11.13,73106.3,-3.61,-40.73,-40.73,0,*5C
1518955292.39,58758,11.13,73096.3,-3.59,-40.53,-40.53,0,*58
1518955293.63,58759,11.13,73098.8,-3.61,-42.25,-42.19,0,*5D
1518955294.87,58760,11.13,73098.3,-3.61,-41.81,-41.73,0,*55
1518955296.08,58761,11.13,73096.0,-3.61,-40.53,-40.53,0,*59
1518955297.31,58762,11.13,73098.0,-3.61,-40.53,-40.41,0,*59
1518955298.59,58763,11.13,73096.5,-3.59,-40.29,-40.29,0,*50
1518955299.8,58764,11.06,73088.8,-3.61,-40.53,-40.53,0,*5C
1518955301.06,58765,11.13,73094.5,-3.59,-39.91,-39.53,0,*58
1518955302.35,58766,11.13,73098.0,-3.59,-39.59,-39.29,0,*52
1518955303.58,58767,11.13,73092.8,-3.57,-40.35,-40.29,0,*57
1518955304.85,58768,11.13,73094.0,-3.57,-39.79,-39.59,0,*57
1518955306.06,58769,11.13,73098.5,-3.57,-40.53,-40.47,0,*51
1518955307.29,58770,11.13,73098.3,-3.55,-39.91,-39.91,0,*5E
1518955308.53,58771,11.13,73100.3,-3.57,-40.09,-39.91,0,*52
1518955309.79,58772,11.13,73096.8,-3.55,-39.65,-39.53,0,*59
1518955311.03,58773,11.13,73096.5,-3.55,-41.03,-40.91,0,*57
1518955312.24,58774,11.13,73094.3,-3.53,-41.49,-41.41,0,*54
1518955313.49,58775,11.13,73092.3,-3.55,-41.03,-40.91,0,*51
1518955314.72,58776,11.13,73096.8,-3.57,-40.35,-40.09,0,*55
1518955315.95,58777,11.13,73092.3,-3.55,-41.49,-41.49,0,*59
1518955317.18,58778,11.13,73092.5,-3.55,-41.49,-41.41,0,*5E
1518955318.43,58779,11.13,73092.3,-3.57,-40.91,-40.97,0,*53
1518955319.67,58780,11.13,73094.5,-3.55,-40.91,-41.11,0,*58
1518955320.91,58781,11.13,73100.5,-3.55,-40.91,-40.91,0,*50
1518955322.14,58782,11.13,73094.0,-3.55,-41.29,-41.29,0,*53
1518955323.39,58783,11.13,73092.5,-3.57,-42.05,-41.93,0,*5C
1518955324.63,58784,11.13,73088.8,-3.57,-43.55,-43.75,0,*55
1518955325.86,58785,11.13,73094.0,-3.61,-43.87,-44.21,0,*58
1518955327.1,58786,11.13,73090.0,-3.61,-42.45,-42.37,0,*55
1518955328.33,58787,11.13,73094.5,-3.61,-41.73,-41.81,0,*5C
1518955329.56,58788,11.13,73094.0,-3.61,-40.59,-40.73,0,*56
1518955330.8,58789,11.13,73092.8,-3.65,-41.99,-42.05,0,*5D
1518955332.04,58790,11.13,73098.0,-3.65,-40.85,-41.03,0,*5C
1518955333.27,58791,11.13,73092.8,-3.61,-41.99,-41.93,0,*5C
1518955334.57,58792,11.13,73094.0,-3.67,-41.23,-41.23,0,*53
1518955335.8,58793,11.13,73094.3,-3.65,-40.59,-40.47,0,*5F
1518955337.04,58794,11.13,73096.3,-3.65,-40.09,-40.03,0,*5D
1518955338.24,58795,11.13,73096.3,-3.65,-41.29,-41.49,0,*50
1518955339.46,58796,11.13,73092.3,-3.65,-41.03,-41.03,0,*55
1518955340.7,58797,11.13,73094.3,-3.61,-40.41,-40.53,0,*53
1518955341.93,58798,11.13,73094.8,-3.61,-40.29,-40.35,0,*52
1518955343.18,58799,11.13,73092.0,-3.59,-40.91,-40.91,0,*55
1518955344.42,58800,11.13,73094.3,-3.61,-40.91,-40.79,0,*57
1518955345.69,58801,11.13,73098.3,-3.59,-40.15,-40.09,0,*56
1518955346.97,58802,11.13,73098.8,-3.59,-39.97,-40.09,0,*51
1518955348.27,58803,11.13,73098.0,-3.59,-40.09,-40.09,0,*59
1518955349.49,58804,11.13,73102.3,-3.59,-40.53,-40.65,0,*5B
1518955350.75,58805,11.13,73098.0,-3.57,-42.69,-42.69,0,*51
1518955351.96,58806,11.13,73092.5,-3.57,-41.29,-41.17,0,*5F
1518955353.2,58807,11.13,73090.0,-3.59,-41.17,-41.29,0,*50
1518955354.43,58808,11.13,73088.0,-3.61,-41.73,-41.81,0,*54
1518955355.66,58809,11.13,73090.3,-3.59,-41.17,-41.17,0,*53
1518955356.91,58810,11.13,73090.0,-3.59,-40.15,-40.15,0,*5B
1518955358.17,58811,11.13,73088.5,-3.59,-39.71,-39.47,0,*5F
1518955359.42,58812,11.13,73090.0,-3.59,-39.53,-39.35,0,*59
1518955360.66,58813,11.13,73086.5,-3.57,-39.91,-39.79,0,*50
1518955361.94,58814,11.13,73086.5,-3.55,-39.03,-38.91,0,*59
1518955363.19,58815,11.13,73082.3,-3.55,-40.65,-40.59,0,*5D
1518955364.45,58816,11.13,73082.3,-3.55,-39.85,-39.71,0,*5A
1518955365.71,58817,11.13,73082.8,-3.55,-40.85,-40.65,0,*5E
1518955366.92,58818,11.13,73082.8,-3.53,-39.91,-39.85,0,*5C
1518955368.19,58819,11.13,73086.3,-3.51,-40.97,-41.03,0,*56
1518955369.45,58820,11.13,73088.5,-3.51,-41.81,-41.99,0,*59
1518955370.68,58821,11.13,73086.3,-3.53,-41.81,-41.61,0,*5D
1518955371.91,58822,11.13,73084.8,-3.55,-41.11,-41.29,0,*5D
1518955373.18,58823,11.13,73088.0,-3.57,-41.55,-41.67,0,*54
1518955374.46,58824,11.13,73086.5,-3.55,-42.05,-42.05,0,*50
1518955375.72,58825,11.13,73086.3,-3.57,-43.29,-43.09,0,*51
1518955376.96,58826,11.13,73084.0,-3.57,-41.67,-41.49,0,*5C
1518955378.19,58827,11.13,73086.0,-3.57,-40.85,-40.73,0,*58
1518955379.43,58828,11.13,73088.3,-3.57,-39.97,-39.91,0,*58
1518955380.71,58829,11.13,73088.5,-3.55,-40.41,-40.29,0,*53
1518955381.96,58830,11.13,73084.0,-3.55,-41.03,-40.91,0,*5F
1518955383.23,58831,11.13,73086.8,-3.55,-40.29,-40.21,0,*5C
1518955384.48,58832,11.13,73086.5,-3.55,-40.65,-40.79,0,*5A
1518955385.76,58833,11.13,73084.3,-3.55,-40.59,-40.41,0,*5F
1518955387.0,58834,11.13,73084.0,-3.57,-41.87,-41.93,0,*56
1518955388.25,58835,11.13,73090.3,-3.55,-41.11,-41.23,0,*51
1518955389.51,58836,11.13,73088.5,-3.55,-42.45,-42.51,0,*56
1518955390.78,58837,11.13,73086.0,-3.57,-43.09,-43.09,0,*50
1518955392.02,58838,11.13,73086.5,-3.57,-41.49,-41.67,0,*53
1518955393.28,58839,11.13,73086.8,-3.59,-43.81,-43.95,0,*55
1518955394.5,58840,11.13,73082.5,-3.61,-44.79,-45.13,0,*58
1518955395.74,58841,11.13,73078.5,-3.67,-43.41,-43.49,0,*5A
1518955397.02,58842,11.13,73084.8,-3.67,-44.13,-44.47,0,*50
1518955398.27,58843,11.13,73086.8,-3.69,-45.27,-45.61,0,*5C
1518955399.49,58844,11.13,73088.0,-3.75,-45.33,-45.47,0,*57
1518955400.73,58845,11.13,73084.0,-3.75,-44.87,-45.07,0,*5C
1518955401.97,58846,11.13,73086.5,-3.79,-45.53,-45.81,0,*55
1518955403.18,58847,11.13,73086.0,-3.83,-44.99,-45.21,0,*5C
1518955404.42,58848,11.13,73090.5,-3.83,-45.67,-46.07,0,*54
1518955405.69,58849,11.13,73090.3,-3.89,-44.67,-44.87,0,*54
1518955406.95,58850,11.13,73090.0,-3.89,-42.83,-42.89,0,*58
1518955408.18,58851,11.13,73086.8,-3.93,-44.41,-44.79,0,*53
1518955409.44,58852,11.13,73090.3,-3.91,-44.73,-44.73,0,*59
1518955410.7,58853,11.13,73090.3,-3.93,-44.73,-45.13,0,*5D
1518955411.97,58854,11.13,73092.8,-3.95,-44.21,-44.33,0,*58
1518955413.23,58855,11.13,73090.0,-3.97,-45.67,-46.27,0,*5F
1518955414.48,58856,11.13,73088.5,-4.01,-46.01,-46.21,0,*51
1518955415.72,58857,11.13,73084.8,-4.05,-44.13,-44.07,0,*53
1518955416.98,58858,11.13,73086.8,-4.03,-44.01,-44.13,0,*5C
1518955418.19,58859,11.13,73090.5,-4.05,-42.89,-42.89,0,*58
1518955419.41,58860,11.13,73092.8,-4.05,-41.87,-41.73,0,*59
1518955420.66,58861,11.13,73088.5,-4.05,-42.31,-42.51,0,*55
1518955421.91,58862,11.13,73090.0,-4.03,-43.67,-43.81,0,*5E
1518955423.13,58863,11.13,73090.8,-4.05,-42.63,-42.51,0,*50
1518955424.38,58864,11.13,73092.3,-4.05,-41.93,-41.87,0,*53
1518955425.62,58865,11.13,73090.3,-4.03,-42.69,-42.63,0,*5B
1518955426.87,58866,11.13,73088.8,-4.03,-42.57,-42.57,0,*52
1518955428.09,58867,11.13,73088.5,-4.05,-43.15,-43.15,0,*55
1518955429.33,58868,11.13,73096.8,-4.05,-43.55,-43.75,0,*58
1518955430.56,58869,11.13,73094.8,-4.09,-43.21,-43.15,0,*50
1518955431.83,58870,11.13,73094.8,-4.05,-42.83,-42.69,0,*57
1518955433.04,58871,11.13,73092.0,-4.09,-43.15,-43.35,0,*5C
1518955434.29,58872,11.13,73094.5,-4.11,-43.15,-43.21,0,*53
1518955435.58,58873,11.13,73094.0,-4.11,-41.93,-41.81,0,*56
1518955436.81,58874,11.13,73092.0,-4.09,-41.29,-41.35,0,*56
1518955438.02,58875,11.13,73092.8,-4.09,-41.29,-41.17,0,*57
1518955439.23,58876,11.13,73092.0,-4.09,-41.17,-41.17,0,*59
1518955440.44,58877,11.13,73092.8,-4.05,-40.73,-40.65,0,*53
1518955441.66,58878,11.13,73084.3,-4.05,-41.61,-41.61,0,*5B
1518955442.93,58879,11.13,73092.3,-4.03,-41.23,-41.23,0,*5C
1518955444.19,58880,11.13,73088.0,-4.03,-41.23,-41.35,0,*5D
1518955445.43,58881,11.13,73088.5,-4.03,-41.55,-41.41,0,*5E
1518955446.7,58882,11.13,73090.8,-4.03,-40.85,-40.85,0,*58
1518955447.96,58883,11.13,73098.0,-4.01,-40.59,-40.47,0,*54
1518955449.23,58884,11.13,73086.5,-4.01,-40.97,-41.03,0,*50
1518955450.46,58885,11.13,73090.5,-3.99,-40.73,-40.79,0,*51
1518955451.71,58886,11.13,73088.3,-3.97,-40.91,-40.91,0,*56
1518955452.95,58887,11.13,73084.5,-3.97,-40.53,-40.73,0,*55
1518955454.16,58888,11.13,73090.3,-3.95,-40.47,-40.35,0,*5F
1518955455.39,58889,11.13,73088.3,-3.93,-40.35,-40.15,0,*5F
1518955456.65,58890,11.13,73088.8,-3.93,-40.35,-40.09,0,*5A
1518955457.89,58891,11.13,73090.0,-3.91,-41.81,-41.87,0,*50
1518955459.12,58892,11.13,73090.3,-3.93,-41.73,-41.87,0,*5C
1518955460.36,58893,11.13,73088.0,-3.93,-40.53,-40.53,0,*56
1518955461.57,58894,11.13,73092.8,-3.91,-41.03,-41.03,0,*53
1518955462.81,58895,11.13,73086.8,-3.91,-41.35,-41.41,0,*51
1518955464.08,58896,11.13,73088.5,-3.91,-40.85,-40.85,0,*51
1518955465.31,58897,11.13,73090.0,-3.91,-40.59,-40.47,0,*5F
1518955466.53,58898,11.13,73092.5,-3.87,-40.79,-40.73,0,*52
1518955467.8,58899,11.13,73086.3,-3.89,-41.41,-41.23,0,*53
1518955469.04,58900,11.13,73090.0,-3.87,-41.11,-40.97,0,*57
1518955470.24,58901,11.13,73088.3,-3.87,-40.35,-40.03,0,*5C
1518955471.48,58902,11.13,73090.3,-3.87,-40.15,-39.97,0,*5E
1518955472.71,58903,11.13,73088.5,-3.87,-41.73,-41.81,0,*56
1518955473.95,58904,11.13,73092.0,-3.83,-41.23,-41.11,0,*59
1518955475.2,58905,11.13,73092.0,-3.81,-41.03,-40.91,0,*51
1518955476.4,58906,11.13,73090.0,-3.83,-41.49,-41.49,0,*5A
1518955477.61,58907,11.13,73090.8,-3.83,-41.73,-41.73,0,*5B
1518955478.87,58908,11.13,73092.0,-3.81,-40.85,-40.65,0,*58
1518955480.1,58909,11.13,73094.8,-3.81,-40.73,-40.65,0,*50
1518955481.31,58910,11.13,73086.8,-3.83,-41.11,-41.03,0,*5E
1518955482.55,58911,11.13,73088.3,-3.81,-41.11,-41.11,0,*5E
1518955483.81,58912,11.13,73090.8,-3.81,-42.45,-42.51,0,*58
1518955485.05,58913,11.13,73084.8,-3.79,-43.41,-43.21,0,*5D
1518955486.3,58914,11.13,73084.0,-3.83,-41.93,-42.05,0,*55
1518955487.56,58915,11.13,73086.8,-3.83,-41.55,-41.55,0,*58
1518955488.83,58916,11.13,73086.3,-3.83,-41.23,-41.23,0,*5B
1518955490.09,58917,11.13,73088.5,-3.83,-41.55,-41.55,0,*5A
1518955491.3,58918,11.13,73088.5,-3.83,-41.73,-41.87,0,*5E
1518955492.54,58919,11.13,73088.3,-3.83,-41.67,-41.87,0,*5A
1518955493.77,58920,11.13,73088.3,-3.83,-41.29,-41.55,0,*55
1518955495.01,58921,11.13,73084.8,-3.83,-42.25,-42.31,0,*5A
1518955496.27,58922,11.13,73084.8,-3.83,-42.45,-42.69,0,*52
1518955497.51,58923,11.13,73086.0,-3.83,-41.11,-41.23,0,*5C
1518955498.71,58924,11.13,73084.5,-3.87,-41.11,-41.11,0,*5E
1518955499.92,58925,11.13,73088.5,-3.87,-41.29,-41.17,0,*52
1518955501.15,58926,11.13,73094.0,-3.87,-40.73,-40.79,0,*56
1518955502.38,58927,11.13,73086.8,-3.87,-40.53,-40.41,0,*5E
1518955503.63,58928,11.13,73086.5,-3.81,-41.29,-41.35,0,*59
1518955504.87,58929,11.13,73090.5,-3.81,-40.73,-40.91,0,*59
1518955506.07,58930,11.13,73092.8,-3.83,-40.65,-40.73,0,*58
1518955507.31,58931,11.13,73084.5,-3.81,-40.47,-40.65,0,*5C
1518955508.54,58932,11.13,73090.3,-3.81,-40.35,-40.35,0,*5F
1518955509.74,58933,11.13,73088.0,-3.79,-40.35,-40.53,0,*59
1518955510.99,58934,11.13,73090.5,-3.79,-41.03,-40.97,0,*52
1518955512.28,58935,11.13,73088.5,-3.77,-40.97,-40.97,0,*51
1518955513.52,58936,11.13,73090.3,-3.79,-41.23,-41.41,0,*58
1518955514.78,58937,11.13,73084.5,-3.79,-40.97,-40.97,0,*5D
1518955516.0,58938,11.13,73088.8,-3.75,-40.15,-40.15,0,*5E
1518955517.2,58939,11.13,73088.8,-3.75,-40.35,-40.35,0,*5F
1518955518.46,58940,11.13,73092.0,-3.75,-39.97,-39.71,0,*59
1518955519.71,58941,11.13,73094.5,-3.73,-40.15,-40.15,0,*56
1518955521.0,58942,11.13,73094.8,-3.73,-39.59,-39.53,0,*5F
1518955522.27,58943,11.13,73100.5,-3.73,-40.91,-40.97,0,*52
1518955523.54,58944,11.13,73098.3,-3.73,-41.23,-41.41,0,*57
1518955524.8,58945,11.13,73096.3,-3.71,-40.73,-40.85,0,*59
1518955526.02,58946,11.13,73092.8,-3.71,-40.53,-40.65,0,*56
1518955527.26,58947,11.13,73094.0,-3.73,-41.17,-41.17,0,*50
1518955528.51,58948,11.13,73096.3,-3.73,-40.15,-40.15,0,*5F
1518955529.75,58949,11.13,73096.8,-3.69,-39.91,-39.79,0,*53
1518955530.98,58950,11.13,73098.8,-3.71,-40.35,-40.47,0,*51
1518955532.24,58951,11.13,73096.5,-3.71,-42.69,-42.75,0,*58
1518955533.47,58952,11.13,73098.5,-3.71,-41.29,-41.17,0,*5B
1518955534.73,58953,11.13,73098.5,-3.71,-42.25,-42.31,0,*52
1518955536.0,58954,11.13,73096.5,-3.71,-42.69,-42.75,0,*5D
1518955537.27,58955,11.13,73096.3,-3.71,-42.05,-42.05,0,*51
1518955538.54,58956,11.13,73092.3,-3.73,-41.23,-41.11,0,*51
1518955539.82,58957,11.13,73096.5,-3.73,-40.79,-40.79,0,*51
1518955541.06,58958,11.13,73100.5,-3.73,-41.61,-41.73,0,*5D
1518955542.36,58959,11.13,73100.8,-3.73,-42.19,-42.19,0,*5F
1518955543.62,58960,11.13,73094.5,-3.73,-42.57,-42.63,0,*52
1518955544.87,58961,11.13,73092.3,-3.75,-42.57,-42.57,0,*52
1518955546.14,58962,11.13,73092.5,-3.75,-41.23,-41.23,0,*51
1518955547.38,58963,11.13,73096.3,-3.73,-40.91,-40.73,0,*5A
1518955548.64,58964,11.13,73096.5,-3.73,-40.41,-40.35,0,*52
1518955549.94,58965,11.13,73100.0,-3.73,-40.41,-40.59,0,*59
1518955551.17,58966,11.13,73104.3,-3.71,-40.35,-40.35,0,*51
1518955552.39,58967,11.13,73096.0,-3.71,-40.47,-40.35,0,*55
1518955553.62,58968,11.13,73094.8,-3.71,-40.47,-40.47,0,*5F
1518955554.83,58969,11.13,73096.0,-3.69,-40.73,-40.73,0,*57
1518955556.04,58970,11.13,73096.0,-3.69,-41.17,-41.17,0,*5F
1518955557.3,58971,11.13,73102.0,-3.71,-41.29,-41.35,0,*5A
1518955558.5,58972,11.13,73096.3,-3.69,-41.29,-41.17,0,*50
1518955559.76,58973,11.13,73096.0,-3.71,-41.17,-41.35,0,*55
1518955561.05,58974,11.13,73092.0,-3.71,-42.69,-42.69,0,*52
1518955562.29,58975,11.13,73098.0,-3.69,-42.51,-42.31,0,*5C
1518955563.52,58976,11.13,73096.5,-3.71,-41.17,-41.03,0,*55
1518955564.8,58977,11.13,73096.8,-3.71,-40.29,-40.09,0,*53
1518955566.03,58978,11.13,73096.0,-3.69,-41.03,-40.91,0,*5D
1518955567.31,58979,11.13,73094.0,-3.71,-40.29,-40.09,0,*5D
1518955568.53,58980,11.13,73096.8,-3.69,-41.03,-40.91,0,*5A
1518955569.76,58981,11.13,73098.0,-3.71,-40.73,-40.53,0,*5A
1518955570.98,58982,11.13,73094.8,-3.69,-41.03,-40.91,0,*58
1518955572.22,58983,11.13,73092.3,-3.69,-40.09,-40.15,0,*5E
1518955573.49,58984,11.13,73092.5,-3.67,-42.89,-43.09,0,*53
1518955574.75,58985,11.13,73092.8,-3.67,-42.63,-42.69,0,*51
1518955576.04,58986,11.13,73094.3,-3.67,-40.97,-40.97,0,*58
1518955577.25,58987,11.13,73094.0,-3.69,-40.47,-40.47,0,*57
1518955578.51,58988,11.13,73094.0,-3.67,-40.65,-40.79,0,*5B
1518955579.8,58989,11.13,73096.3,-3.67,-39.71,-39.71,0,*57
1518955581.07,58990,11.13,73098.3,-3.65,-40.09,-40.09,0,*5D
1518955582.32,58991,11.13,73096.8,-3.65,-40.29,-40.29,0,*5C
1518955583.54,58992,11.13,73096.0,-3.65,-41.61,-41.49,0,*55
1518955584.8,58993,11.13,73100.0,-3.61,-40.97,-40.97,0,*5A
1518955586.06,58994,11.13,73100.3,-3.61,-41.93,-41.81,0,*5E
1518955587.3,58995,11.13,73098.3,-3.65,-42.05,-41.99,0,*5E
1518955588.52,58996,11.13,73098.3,-3.65,-41.11,-41.03,0,*58
1518955589.75,58997,11.13,73102.3,-3.65,-40.79,-40.65,0,*57
1518955590.98,58998,11.13,73096.3,-3.65,-42.05,-41.99,0,*53
1518955592.24,58999,11.13,73098.5,-3.65,-42.05,-41.81,0,*5B
1518955593.51,59000,11.13,73102.0,-3.65,-40.97,-40.85,0,*5F
1518955594.74,59001,11.13,73096.0,-3.65,-40.41,-40.47,0,*5B
1518955595.95,59002,11.13,73098.3,-3.61,-40.73,-40.73,0,*5A
1518955597.16,59003,11.13,73100.0,-3.61,-40.73,-40.53,0,*59
1518955598.39,59004,11.13,73106.3,-3.61,-41.55,-42.13,0,*5D
1518955599.63,59005,11.13,73102.5,-3.61,-44.21,-44.41,0,*5B
1518955600.85,59006,11.13,73096.5,-3.65,-44.07,-44.27,0,*58
1518955602.09,59007,11.13,73098.8,-3.67,-44.27,-44.27,0,*59
1518955603.3,59008,11.13,73098.8,-3.69,-42.51,-42.51,0,*58
1518955604.56,59009,11.13,73094.5,-3.71,-42.05,-42.13,0,*57
1518955605.79,59010,11.13,73092.5,-3.71,-41.17,-41.11,0,*5E
1518955607.05,59011,11.13,73098.5,-3.71,-40.85,-40.91,0,*5C
1518955608.26,59012,11.13,73098.5,-3.69,-41.17,-41.17,0,*53
1518955609.5,59013,11.13,73098.8,-3.69,-41.49,-41.35,0,*59
1518955610.71,59014,11.13,73096.5,-3.69,-41.73,-41.87,0,*5E
1518955611.97,59015,11.13,73098.0,-3.69,-39.97,-39.79,0,*54
1518955613.22,59016,11.13,73096.8,-3.67,-41.41,-41.41,0,*59
1518955614.46,59017,11.13,73100.8,-3.67,-41.41,-41.29,0,*56
1518955615.74,59018,11.13,73098.5,-3.67,-40.21,-40.09,0,*5D
1518955616.95,59019,11.13,73096.5,-3.65,-39.65,-39.47,0,*54
1518955618.19,59020,11.13,73096.8,-3.65,-39.71,-39.91,0,*50
1518955619.46,59021,11.13,73098.8,-3.61,-39.79,-39.53,0,*53
1518955620.72,59022,11.13,73100.8,-3.59,-39.59,-39.47,0,*5C
1518955621.99,59023,11.13,73098.5,-3.59,-40.91,-40.97,0,*54
1518955623.23,59024,11.13,73100.8,-3.59,-41.11,-41.11,0,*55
1518955624.51,59025,11.13,73098.5,-3.59,-40.29,-40.29,0,*54
1518955625.74,59026,11.13,73102.3,-3.55,-41.41,-41.41,0,*5B
1518955627.01,59027,11.13,73100.0,-3.57,-41.35,-41.35,0,*58
1518955628.24,59028,11.13,73096.8,-3.57,-40.47,-40.29,0,*5F
1518955629.53,59029,11.13,73098.8,-3.55,-40.41,-40.41,0,*54
1518955630.78,59030,11.13,73098.0,-3.55,-40.21,-40.15,0,*5B
1518955632.01,59031,11.13,73096.3,-3.55,-40.03,-39.91,0,*58
1518955633.25,59032,11.13,73100.0,-3.53,-40.85,-40.65,0,*56
1518955634.48,59033,11.13,73102.0,-3.51,-39.65,-39.47,0,*5B
1518955635.71,59034,11.13,73100.0,-3.51,-40.03,-40.03,0,*5C
1518955636.94,59035,11.13,73102.5,-3.51,-41.73,-41.61,0,*5E
1518955638.23,59036,11.13,73096.0,-3.51,-41.35,-41.55,0,*58
1518955639.46,59037,11.13,73096.0,-3.53,-41.29,-41.23,0,*57
1518955640.72,59038,11.13,73098.0,-3.53,-41.81,-41.81,0,*52
1518955641.98,59039,11.13,73098.5,-3.53,-43.29,-43.21,0,*5B
1518955643.25,59040,11.13,73098.0,-3.55,-41.23,-41.11,0,*5A
1518955644.48,59041,11.13,73096.0,-3.53,-42.13,-42.05,0,*5B
1518955645.72,59042,11.13,73096.8,-3.53,-41.87,-41.81,0,*59
1518955646.93,59043,11.13,73100.8,-3.53,-41.11,-41.03,0,*5D
1518955648.15,59044,11.13,73096.0,-3.53,-41.41,-41.41,0,*59
1518955649.41,59045,11.13,73098.0,-3.53,-42.69,-42.69,0,*58
1518955650.67,59046,11.19,73100.8,-3.55,-42.69,-42.63,0,*57
1518955651.91,59047,11.13,73096.5,-3.57,-41.73,-41.67,0,*5B
1518955653.16,59048,11.19,73098.8,-3.57,-42.05,-41.93,0,*5D
1518955654.43,59049,11.13,73096.8,-3.59,-41.73,-41.55,0,*5A
1518955655.71,59050,11.13,73098.5,-3.55,-40.85,-40.79,0,*59
1518955656.94,59051,11.13,73098.0,-3.57,-43.29,-43.15,0,*56
1518955658.2,59052,11.13,73096.8,-3.57,-42.05,-41.93,0,*56
1518955659.47,59053,11.13,73096.8,-3.57,-40.97,-40.97,0,*5B
1518955660.73,59054,11.13,73096.8,-3.59,-42.13,-42.05,0,*55
1518955661.94,59055,11.13,73096.8,-3.61,-43.41,-43.41,0,*58
1518955663.16,59056,11.13,73098.5,-3.61,-43.49,-43.49,0,*5B
1518955664.39,59057,11.13,73092.5,-3.61,-42.63,-42.83,0,*54
1518955665.63,59058,11.13,73094.0,-3.61,-42.25,-42.19,0,*5A
1518955666.9,59059,11.13,73092.0,-3.61,-42.19,-42.19,0,*54
1518955668.14,59060,11.13,73094.8,-3.65,-42.31,-42.25,0,*5F
1518955669.38,59061,11.19,73096.3,-3.67,-41.49,-41.41,0,*51
1518955670.61,59062,11.13,73092.3,-3.65,-40.79,-40.65,0,*55
1518955671.87,59063,11.13,73088.0,-3.65,-40.85,-40.79,0,*5A
1518955673.09,59064,11.13,73088.0,-3.59,-40.65,-40.65,0,*51
1518955674.33,59065,11.13,73088.8,-3.59,-40.35,-40.35,0,*50
1518955675.61,59066,11.13,73090.3,-3.59,-40.29,-40.09,0,*51
1518955676.89,59067,11.13,73088.3,-3.59,-41.93,-41.93,0,*52
1518955678.15,59068,11.13,73090.3,-3.59,-41.55,-41.29,0,*56
1518955679.41,59069,11.13,73088.3,-3.59,-41.49,-41.35,0,*57
1518955680.7,59070,11.13,73088.5,-3.59,-40.97,-40.85,0,*57
1518955681.96,59071,11.13,73090.3,-3.59,-40.35,-40.29,0,*58
1518955683.19,59072,11.13,73092.3,-3.57,-40.29,-40.15,0,*57
1518955684.4,59073,11.13,73090.8,-3.57,-40.47,-40.47,0,*59
1518955685.64,59074,11.19,73094.8,-3.55,-40.91,-40.73,0,*50
1518955686.88,59075,11.13,73088.0,-3.55,-40.91,-41.03,0,*57
1518955688.13,59076,11.13,73090.5,-3.55,-40.65,-40.59,0,*51
1518955689.37,59077,11.13,73090.3,-3.55,-40.91,-40.91,0,*5F
1518955690.64,59078,11.19,73092.3,-3.55,-41.61,-41.67,0,*56
1518955691.9,59079,11.13,73090.5,-3.53,-41.23,-41.23,0,*57
1518955693.11,59080,11.19,73094.8,-3.53,-41.61,-41.49,0,*5B
1518955694.34,59081,11.13,73092.5,-3.53,-40.79,-40.47,0,*5D
1518955695.59,59082,11.19,73096.3,-3.53,-40.91,-40.85,0,*56
1518955696.79,59083,11.13,73094.5,-3.53,-41.49,-41.49,0,*52